To NAV CANADA Home Page Login to a new session Search on AWWS site Feedback and Comments Disclaimer Vers la page française équivalente Tips FAQ What's new on the site To the Forecasts and Observations / NOTAM section To "File a Flight Plan" website Publications and other links Update of the User's profile FIC Telephone Numbers My Weather Data Folder Route Weather Data Regional Weather Data Local Weather Data To the Forecasts and Observations / NOTAM section
Request Generated 10/18/2017 at 03:51:20 UTC . Weather information available at that time is displayed.

METAR/TAF

KANGIQSUALUJJUAQ (GEORGES RIVER)/QC    

LWIS CYLU 180300Z AUTO 14007KT M03/M05 A2975=
LWIS CYLU 180200Z AUTO 15006KT M03/M05 A2976=
LWIS CYLU 180100Z AUTO 13003KT M04/M07 A2976=

CYLU - No TAF is issued for this station

Your time UTC time
Weather data provided by Environment Canada and NAV CANADA